PHSCH EHLE-EHSE

Flight info

Callsign PHSCH
Flight time 0h 27m
Altitude 16000
Route KUDAD
Aircraft PC12/L-SDFGRWY/S

Departure

Time 2026-04-28 19:00
Airport Lelystad Airport (EHLE)

Arrival

Time 2026-04-28 19:28
Airport Breda International Airport (EHSE)
Time Latitude Longitude Altitude Speed Heading
2026-04-28 18:35 52.45539 5.52321 -9 ft 0 kts 49°
2026-04-28 18:48 52.45539 5.52323 -9 ft 2 kts 49°
2026-04-28 18:48 52.45563 5.52347 -9 ft 3 kts 344°
2026-04-28 18:49 52.45557 5.52269 -9 ft 11 kts 229°
2026-04-28 18:49 52.45527 5.52216 -9 ft 4 kts 229°
2026-04-28 18:49 52.45461 5.52098 -9 ft 16 kts 232°
2026-04-28 18:49 52.45399 5.51987 -9 ft 6 kts 228°
2026-04-28 18:50 52.45344 5.51890 -9 ft 15 kts 229°
2026-04-28 18:50 52.45289 5.51791 -9 ft 14 kts 230°
2026-04-28 18:50 52.45221 5.51657 -9 ft 17 kts 240°
2026-04-28 18:50 52.45154 5.51532 -9 ft 17 kts 230°
2026-04-28 18:51 52.45092 5.51424 -9 ft 17 kts 228°
2026-04-28 18:51 52.45008 5.51267 -9 ft 18 kts 229°
2026-04-28 18:51 52.44917 5.51125 -9 ft 18 kts 221°
2026-04-28 18:51 52.44828 5.50969 -9 ft 22 kts 227°
2026-04-28 18:52 52.44737 5.50802 -9 ft 16 kts 226°
2026-04-28 18:52 52.44663 5.50670 -9 ft 14 kts 229°
2026-04-28 18:52 52.44604 5.50566 -9 ft 10 kts 227°
2026-04-28 18:52 52.44576 5.50502 -9 ft 3 kts 252°
2026-04-28 18:53 52.44574 5.50487 -9 ft 0 kts 263°
2026-04-28 18:58 52.44574 5.50485 -9 ft 2 kts 263°
2026-04-28 18:58 52.44595 5.50410 -9 ft 9 kts 316°
2026-04-28 18:59 52.44657 5.50323 -7 ft 11 kts 330°
2026-04-28 18:59 52.44710 5.50360 -7 ft 18 kts 45°
2026-04-28 18:59 52.44930 5.50752 -8 ft 76 kts 47°
2026-04-28 18:59 52.45333 5.51477 272 ft 97 kts 51°
2026-04-28 19:00 52.45886 5.52507 357 ft 148 kts 49°
2026-04-28 19:00 52.46666 5.53983 382 ft 183 kts 51°
2026-04-28 19:00 52.47539 5.55539 680 ft 187 kts 48°
2026-04-28 19:00 52.48453 5.57069 965 ft 188 kts 50°
2026-04-28 19:01 52.49352 5.58667 1240 ft 192 kts 50°
2026-04-28 19:01 52.50257 5.60296 1507 ft 194 kts 50°
2026-04-28 19:01 52.51279 5.61736 1761 ft 195 kts 38°
2026-04-28 19:01 52.52405 5.62985 2011 ft 196 kts 39°
2026-04-28 19:02 52.53525 5.64274 2273 ft 197 kts 39°
2026-04-28 19:02 52.54658 5.65572 2526 ft 200 kts 39°
2026-04-28 19:02 52.55696 5.67056 2780 ft 197 kts 52°
2026-04-28 19:02 52.56449 5.68908 3096 ft 193 kts 64°
2026-04-28 19:03 52.56895 5.70963 3477 ft 190 kts 77°
2026-04-28 19:03 52.57021 5.73129 3854 ft 191 kts 90°
2026-04-28 19:03 52.56823 5.75279 4227 ft 195 kts 103°
2026-04-28 19:03 52.56290 5.77342 4610 ft 198 kts 116°
2026-04-28 19:04 52.55538 5.79249 5009 ft 200 kts 120°
2026-04-28 19:04 52.54785 5.81181 5387 ft 201 kts 120°
2026-04-28 19:04 52.54026 5.83129 5764 ft 204 kts 121°
2026-04-28 19:04 52.53247 5.85109 6148 ft 208 kts 121°
2026-04-28 19:05 52.52245 5.86853 6314 ft 223 kts 149°
2026-04-28 19:05 52.50674 5.87157 6452 ft 241 kts 185°
2026-04-28 19:05 52.49029 5.86475 6548 ft 245 kts 192°
2026-04-28 19:05 52.47402 5.85702 6802 ft 240 kts 192°
2026-04-28 19:06 52.45817 5.84929 7168 ft 236 kts 190°
2026-04-28 19:06 52.44778 5.84388 7410 ft 236 kts 192°
2026-04-28 19:06 52.42688 5.83327 7902 ft 236 kts 191°
2026-04-28 19:06 52.41115 5.82493 8281 ft 238 kts 193°
2026-04-28 19:07 52.39530 5.81659 8660 ft 240 kts 192°
2026-04-28 19:07 52.37939 5.80849 9058 ft 239 kts 193°
2026-04-28 19:07 52.36387 5.79832 9443 ft 244 kts 207°
2026-04-28 19:07 52.34948 5.78348 9845 ft 245 kts 211°
2026-04-28 19:08 52.33513 5.76844 10234 ft 245 kts 207°
2026-04-28 19:08 52.32016 5.75471 10523 ft 249 kts 205°
2026-04-28 19:08 52.30473 5.74110 10769 ft 254 kts 204°
2026-04-28 19:08 52.28911 5.72689 11035 ft 259 kts 206°
2026-04-28 19:09 52.27341 5.71243 11291 ft 259 kts 207°
2026-04-28 19:09 52.25762 5.69794 11535 ft 261 kts 207°
2026-04-28 19:09 52.24175 5.68351 11782 ft 262 kts 205°
2026-04-28 19:09 52.22581 5.66899 12043 ft 263 kts 205°
2026-04-28 19:10 52.20975 5.65440 12299 ft 264 kts 205°
2026-04-28 19:10 52.19361 5.63971 12559 ft 267 kts 205°
2026-04-28 19:10 52.17731 5.62492 12821 ft 268 kts 206°
2026-04-28 19:10 52.16121 5.61029 13069 ft 269 kts 206°
2026-04-28 19:11 52.14486 5.59548 13338 ft 268 kts 207°
2026-04-28 19:11 52.12834 5.58048 13605 ft 269 kts 206°
2026-04-28 19:11 52.11218 5.56587 13866 ft 269 kts 208°
2026-04-28 19:11 52.09577 5.55103 14120 ft 271 kts 206°
2026-04-28 19:12 52.07931 5.53613 14358 ft 271 kts 207°
2026-04-28 19:12 52.06294 5.52134 14601 ft 269 kts 206°
2026-04-28 19:12 52.04660 5.50661 14829 ft 268 kts 207°
2026-04-28 19:12 52.03033 5.49193 15077 ft 268 kts 206°
2026-04-28 19:13 52.01397 5.47721 15321 ft 269 kts 207°
2026-04-28 19:13 51.99756 5.46244 15567 ft 271 kts 206°
2026-04-28 19:13 51.98100 5.44754 15819 ft 273 kts 207°
2026-04-28 19:13 51.96443 5.43266 16065 ft 273 kts 206°
2026-04-28 19:14 51.94772 5.41766 16219 ft 277 kts 207°
2026-04-28 19:14 51.93060 5.40229 16225 ft 284 kts 208°
2026-04-28 19:14 51.91426 5.38390 16231 ft 289 kts 222°
2026-04-28 19:14 51.90160 5.35903 16222 ft 293 kts 236°
2026-04-28 19:15 51.89291 5.32843 16226 ft 295 kts 249°
2026-04-28 19:15 51.88583 5.29764 16227 ft 296 kts 248°
2026-04-28 19:15 51.87857 5.26670 16225 ft 293 kts 248°
2026-04-28 19:15 51.87611 5.25625 16221 ft 294 kts 248°
2026-04-28 19:16 51.86400 5.20473 16220 ft 295 kts 248°
2026-04-28 19:16 51.85915 5.18404 16221 ft 297 kts 248°
2026-04-28 19:16 51.85181 5.15283 16222 ft 296 kts 249°
2026-04-28 19:16 51.84544 5.12111 16218 ft 296 kts 255°
2026-04-28 19:17 51.84056 5.08889 16220 ft 294 kts 256°
2026-04-28 19:17 51.83564 5.05681 16220 ft 295 kts 255°
2026-04-28 19:17 51.83057 5.02461 16221 ft 295 kts 255°
2026-04-28 19:17 51.82547 4.99226 16216 ft 298 kts 255°
2026-04-28 19:18 51.82039 4.95979 16219 ft 297 kts 255°
2026-04-28 19:18 51.81533 4.92743 16220 ft 297 kts 255°
2026-04-28 19:18 51.81026 4.89522 16220 ft 296 kts 255°
2026-04-28 19:18 51.80517 4.86297 16221 ft 296 kts 255°
2026-04-28 19:19 51.80016 4.83119 16215 ft 296 kts 254°
2026-04-28 19:19 51.79503 4.79886 16214 ft 299 kts 254°
2026-04-28 19:19 51.78986 4.76628 16190 ft 298 kts 255°
2026-04-28 19:19 51.78462 4.73328 15691 ft 301 kts 255°
2026-04-28 19:20 51.77973 4.70241 15191 ft 273 kts 255°
2026-04-28 19:20 51.77345 4.67396 14684 ft 268 kts 240°
2026-04-28 19:20 51.76298 4.64996 14120 ft 254 kts 224°
2026-04-28 19:20 51.74939 4.63169 13448 ft 254 kts 208°
2026-04-28 19:21 51.73392 4.61894 12785 ft 246 kts 202°
2026-04-28 19:21 51.71853 4.60714 12131 ft 246 kts 200°
2026-04-28 19:21 51.70337 4.59529 11499 ft 239 kts 203°
2026-04-28 19:21 51.68846 4.58369 10891 ft 238 kts 202°
2026-04-28 19:22 51.67347 4.57228 10273 ft 238 kts 196°
2026-04-28 19:22 51.66316 4.56730 9836 ft 231 kts 188°
2026-04-28 19:22 51.64212 4.56413 8793 ft 224 kts 179°
2026-04-28 19:22 51.62666 4.56205 8033 ft 221 kts 178°
2026-04-28 19:23 51.61146 4.55998 7284 ft 217 kts 178°
2026-04-28 19:23 51.59648 4.55801 6544 ft 215 kts 179°
2026-04-28 19:23 51.58186 4.55607 5801 ft 214 kts 179°
2026-04-28 19:23 51.56682 4.55409 5044 ft 213 kts 179°
2026-04-28 19:24 51.55222 4.55214 4428 ft 214 kts 179°
2026-04-28 19:24 51.53745 4.55022 4209 ft 212 kts 178°
2026-04-28 19:24 51.52277 4.54815 4206 ft 208 kts 178°
2026-04-28 19:24 51.50894 4.54600 4193 ft 190 kts 178°
2026-04-28 19:25 51.49561 4.54427 3486 ft 193 kts 173°
2026-04-28 19:25 51.48490 4.55193 3038 ft 159 kts 114°
2026-04-28 19:25 51.48580 4.56806 2420 ft 155 kts 53°
2026-04-28 19:25 51.49615 4.57481 1629 ft 186 kts
2026-04-28 19:26 51.50857 4.56704 1077 ft 200 kts 337°
2026-04-28 19:26 51.51980 4.55466 782 ft 188 kts 328°
2026-04-28 19:26 51.52870 4.54384 693 ft 133 kts 325°
2026-04-28 19:26 51.53170 4.53125 487 ft 113 kts 304°
2026-04-28 19:27 51.53763 4.52484 397 ft 107 kts 356°
2026-04-28 19:27 51.54483 4.52400 343 ft 100 kts 22°
2026-04-28 19:27 51.54940 4.53096 323 ft 89 kts 65°
2026-04-28 19:27 51.55135 4.54054 219 ft 90 kts 68°
2026-04-28 19:28 51.55383 4.54903 63 ft 75 kts 64°
2026-04-28 19:28 51.55556 4.55536 33 ft 48 kts 66°
2026-04-28 19:28 51.55628 4.55796 34 ft 17 kts 65°
2026-04-28 19:28 51.55620 4.55866 34 ft 6 kts 197°
2026-04-28 19:29 51.55591 4.55844 36 ft 3 kts 216°
2026-04-28 19:29 51.55583 4.55830 35 ft 6 kts 242°
2026-04-28 19:29 51.55538 4.55668 32 ft 11 kts 245°
2026-04-28 19:29 51.55507 4.55639 32 ft 3 kts 150°